Location: B?lite?ti
(46.2833°N, 22.7333°E)
Time: 04:23:24
(UTC+00:00)

Cosmos 1703 - Pass Details

Date: 24 January 2021
Orbit: 524 x 538 km, 82.5° (Epoch: 26 February)

Event Time Altitude Azimuth Distance (km) Brightness Sun altitude
Rises 16:45:29 0° 181° (S) 2,650 7.0 -14.3°
Reaches altitude 10° 16:47:37 10° 178° (S) 1,764 6.0 -14.7°
Maximum altitude 16:51:28 67° 96° (E) 576 3.1 -15.4°
Drops below altitude 10° 16:55:20 10° 14° (NNE) 1,776 5.7 -16.0°
Enters shadow 16:55:56 - 13° (NNE) 2,026 6.0 -16.1°
